Time,TemperatureF,DewpointF,PressureIn,WindDirection,WindDirectionDegrees,WindSpeedMPH,WindSpeedGustMPH,Humidity,HourlyPrecipIn,Conditions,Clouds,dailyrainin,SoftwareType,DateUTC
2013-02-22 00:02:00,37.0,35.0,30.13,NW,306,0.0,2.0,93,0.22,,,0.34,,2013-02-22 05:02:00,
2013-02-22 00:12:00,37.0,35.0,30.13,NW,306,0.0,2.0,93,0.22,,,0.34,,2013-02-22 05:12:00,
2013-02-22 00:22:00,37.0,35.0,30.13,NW,306,0.0,2.0,94,0.19,,,0.38,,2013-02-22 05:22:00,
2013-02-22 00:32:00,38.0,36.0,30.13,NW,306,0.0,0.0,94,0.16,,,0.40,,2013-02-22 05:32:00,
2013-02-22 00:42:00,38.0,36.0,30.13,NW,306,0.0,0.0,94,0.16,,,0.40,,2013-02-22 05:42:00,
2013-02-22 00:52:00,38.0,36.0,30.14,NW,306,0.0,0.0,94,0.14,,,0.44,,2013-02-22 05:52:00,
2013-02-22 01:01:00,37.0,35.0,30.16,NW,306,0.0,0.0,94,0.13,,,0.47,,2013-02-22 06:01:00,
2013-02-22 01:12:00,37.0,35.0,30.16,NW,306,0.0,0.0,94,0.13,,,0.47,,2013-02-22 06:12:00,
2013-02-22 01:22:00,37.0,35.0,30.15,NW,306,0.0,0.0,94,0.12,,,0.50,,2013-02-22 06:22:00,
2013-02-22 01:32:00,37.0,35.0,30.14,NW,306,0.0,0.0,94,0.12,,,0.52,,2013-02-22 06:32:00,
2013-02-22 01:42:00,37.0,35.0,30.14,NW,306,0.0,0.0,94,0.12,,,0.52,,2013-02-22 06:42:00,
2013-02-22 01:52:00,37.0,35.0,30.15,NW,306,0.0,0.0,94,0.10,,,0.54,,2013-02-22 06:52:00,
2013-02-22 02:01:00,37.0,35.0,30.14,NW,306,0.0,0.0,94,0.09,,,0.56,,2013-02-22 07:01:00,
2013-02-22 02:11:00,37.0,36.0,30.14,NW,306,0.0,0.0,95,0.09,,,0.59,,2013-02-22 07:11:00,
2013-02-22 02:22:00,37.0,36.0,30.14,NW,306,0.0,0.0,95,0.09,,,0.59,,2013-02-22 07:22:00,
2013-02-22 02:31:00,37.0,36.0,30.13,SSW,209,0.0,2.0,95,0.10,,,0.62,,2013-02-22 07:31:00,
2013-02-22 02:42:00,37.0,36.0,30.14,SSW,209,1.0,2.0,95,0.11,,,0.65,,2013-02-22 07:42:00,
2013-02-22 02:52:00,37.0,36.0,30.14,SSW,209,1.0,2.0,95,0.11,,,0.65,,2013-02-22 07:52:00,
2013-02-22 03:01:00,37.0,36.0,30.12,NW,324,0.0,2.0,95,0.12,,,0.68,,2013-02-22 08:01:00,
2013-02-22 03:11:00,37.0,36.0,30.11,NW,324,0.0,3.0,95,0.11,,,0.70,,2013-02-22 08:11:00,
2013-02-22 03:21:00,37.0,36.0,30.11,NW,324,0.0,3.0,95,0.11,,,0.70,,2013-02-22 08:21:00,
2013-02-22 03:31:00,37.0,35.0,30.12,NW,324,0.0,0.0,94,0.10,,,0.72,,2013-02-22 08:31:00,
2013-02-22 03:42:00,37.0,35.0,30.12,NW,324,0.0,0.0,94,0.10,,,0.72,,2013-02-22 08:42:00,
2013-02-22 03:52:00,37.0,35.0,30.09,NW,324,0.0,0.0,94,0.09,,,0.74,,2013-02-22 08:52:00,
2013-02-22 04:03:00,37.0,35.0,30.10,NW,324,0.0,0.0,94,0.07,,,0.74,,2013-02-22 09:03:00,
2013-02-22 04:11:00,37.0,35.0,30.10,NW,315,1.0,2.0,94,0.06,,,0.76,,2013-02-22 09:11:00,
2013-02-22 04:21:00,37.0,35.0,30.10,NW,315,1.0,2.0,94,0.06,,,0.76,,2013-02-22 09:21:00,
2013-02-22 04:32:00,37.0,35.0,30.11,SW,216,1.0,2.0,92,0.06,,,0.78,,2013-02-22 09:32:00,
2013-02-22 04:42:00,37.0,35.0,30.11,SSW,212,0.0,1.0,92,0.07,,,0.81,,2013-02-22 09:42:00,
2013-02-22 04:52:00,37.0,35.0,30.11,SSW,212,0.0,1.0,92,0.07,,,0.81,,2013-02-22 09:52:00,
2013-02-22 05:01:00,36.0,34.0,30.12,SSW,212,1.0,3.0,92,0.09,,,0.83,,2013-02-22 10:01:00,
2013-02-22 05:11:00,36.0,34.0,30.12,SSW,212,0.0,3.0,93,0.11,,,0.87,,2013-02-22 10:11:00,
2013-02-22 05:21:00,36.0,34.0,30.12,SSW,212,0.0,3.0,93,0.11,,,0.87,,2013-02-22 10:21:00,
2013-02-22 05:32:00,36.0,34.0,30.12,South,170,0.0,3.0,93,0.11,,,0.89,,2013-02-22 10:32:00,
2013-02-22 05:42:00,36.0,34.0,30.12,South,170,0.0,3.0,93,0.11,,,0.89,,2013-02-22 10:42:00,
2013-02-22 05:52:00,35.0,33.0,30.12,SSE,161,0.0,5.0,92,0.08,,,0.89,,2013-02-22 10:52:00,
2013-02-22 06:01:00,35.0,32.0,30.12,SSE,161,0.0,2.0,90,-99.99,,,-99.99,,2013-02-22 11:01:00,
2013-02-22 06:11:00,35.0,33.0,30.12,SSE,161,0.0,2.0,91,-99.99,,,-99.99,,2013-02-22 11:11:00,
2013-02-22 06:22:00,35.0,33.0,30.12,SSE,161,0.0,2.0,91,-99.99,,,-99.99,,2013-02-22 11:22:00,
2013-02-22 06:32:00,35.0,33.0,30.14,SSE,161,0.0,0.0,91,-99.99,,,-99.99,,2013-02-22 11:32:00,
2013-02-22 06:42:00,35.0,33.0,30.14,SSE,161,0.0,0.0,91,-99.99,,,-99.99,,2013-02-22 11:42:00,
2013-02-22 06:52:00,35.0,33.0,30.14,SSE,161,0.0,1.0,92,-99.99,,,-99.99,,2013-02-22 11:52:00,
2013-02-22 07:02:00,35.0,33.0,30.14,ENE,76,0.0,1.0,91,0.01,,,-99.99,,2013-02-22 12:02:00,
2013-02-22 07:11:00,35.0,33.0,30.14,ENE,76,0.0,1.0,91,0.01,,,-99.99,,2013-02-22 12:11:00,
2013-02-22 07:22:00,35.0,33.0,30.13,ENE,76,0.0,0.0,92,0.01,,,-99.99,,2013-02-22 12:22:00,
2013-02-22 07:32:00,34.0,32.0,30.13,ENE,76,0.0,0.0,92,0.01,,,-99.99,,2013-02-22 12:32:00,
2013-02-22 07:42:00,34.0,32.0,30.13,ENE,76,0.0,0.0,92,0.01,,,-99.99,,2013-02-22 12:42:00,
2013-02-22 07:52:00,34.0,32.0,30.13,ENE,76,0.0,1.0,93,0.01,,,-99.99,,2013-02-22 12:52:00,
2013-02-22 08:02:00,34.0,32.0,30.13,ENE,76,0.0,0.0,92,0.01,,,-99.99,,2013-02-22 13:02:00,
2013-02-22 08:11:00,34.0,32.0,30.13,ENE,76,0.0,0.0,92,0.01,,,-99.99,,2013-02-22 13:11:00,
2013-02-22 08:22:00,34.0,32.0,30.13,ENE,76,0.0,0.0,92,0.00,,,-99.99,,2013-02-22 13:22:00,
2013-02-22 08:32:00,34.0,32.0,30.12,ENE,76,0.0,0.0,92,0.00,,,-99.99,,2013-02-22 13:32:00,
2013-02-22 08:42:00,34.0,32.0,30.12,ENE,76,0.0,0.0,92,0.00,,,-99.99,,2013-02-22 13:42:00,
2013-02-22 08:52:00,35.0,33.0,30.15,ENE,76,0.0,1.0,93,0.00,,,-99.99,,2013-02-22 13:52:00,
2013-02-22 09:01:00,35.0,33.0,30.15,ENE,76,0.0,1.0,91,0.00,,,-99.99,,2013-02-22 14:01:00,
2013-02-22 09:11:00,35.0,33.0,30.15,ENE,76,0.0,0.0,92,0.00,,,-99.99,,2013-02-22 14:11:00,
2013-02-22 09:21:00,35.0,33.0,30.15,ENE,76,0.0,0.0,92,0.00,,,-99.99,,2013-02-22 14:21:00,
2013-02-22 09:32:00,35.0,33.0,30.14,ENE,76,0.0,0.0,93,0.00,,,-99.99,,2013-02-22 14:32:00,
2013-02-22 09:42:00,35.0,33.0,30.14,ENE,76,0.0,0.0,92,0.00,,,-99.99,,2013-02-22 14:42:00,
2013-02-22 09:53:00,35.0,33.0,30.14,ENE,76,0.0,0.0,92,0.00,,,-99.99,,2013-02-22 14:53:00,
2013-02-22 10:01:00,35.0,33.0,30.14,ENE,76,0.0,0.0,91,0.00,,,-99.99,,2013-02-22 15:01:00,
2013-02-22 10:11:00,35.0,32.0,30.14,ENE,76,0.0,0.0,90,0.00,,,-99.99,,2013-02-22 15:11:00,
2013-02-22 10:22:00,35.0,32.0,30.14,ENE,76,0.0,0.0,90,0.00,,,-99.99,,2013-02-22 15:22:00,
2013-02-22 10:32:00,35.0,32.0,30.14,ENE,76,0.0,1.0,90,0.00,,,-99.99,,2013-02-22 15:32:00,
2013-02-22 10:42:00,35.0,32.0,30.14,ENE,76,0.0,1.0,90,0.00,,,-99.99,,2013-02-22 15:42:00,
2013-02-22 10:52:00,35.0,33.0,30.14,ENE,76,0.0,0.0,91,0.00,,,-99.99,,2013-02-22 15:52:00,
2013-02-22 11:01:00,35.0,33.0,30.13,ENE,76,0.0,0.0,92,0.00,,,-99.99,,2013-02-22 16:01:00,
2013-02-22 11:12:00,35.0,33.0,30.13,ENE,76,0.0,1.0,92,0.00,,,-99.99,,2013-02-22 16:12:00,
2013-02-22 11:22:00,35.0,33.0,30.13,ENE,76,0.0,1.0,92,0.00,,,-99.99,,2013-02-22 16:22:00,
2013-02-22 11:32:00,35.0,33.0,30.13,ENE,76,0.0,1.0,92,0.00,,,-99.99,,2013-02-22 16:32:00,
2013-02-22 11:42:00,35.0,33.0,30.13,ENE,76,0.0,1.0,92,0.00,,,-99.99,,2013-02-22 16:42:00,
2013-02-22 11:52:00,35.0,33.0,30.12,ENE,76,0.0,0.0,92,0.00,,,-99.99,,2013-02-22 16:52:00,
2013-02-22 12:01:00,36.0,34.0,30.12,ENE,76,0.0,1.0,91,0.00,,,-99.99,,2013-02-22 17:01:00,
2013-02-22 12:11:00,36.0,34.0,30.11,ENE,76,0.0,0.0,91,0.00,,,-99.99,,2013-02-22 17:11:00,
2013-02-22 12:21:00,36.0,34.0,30.11,ENE,76,0.0,0.0,91,0.00,,,-99.99,,2013-02-22 17:21:00,
2013-02-22 12:32:00,36.0,34.0,30.11,ENE,76,0.0,0.0,91,0.00,,,-99.99,,2013-02-22 17:32:00,
2013-02-22 12:42:00,36.0,34.0,30.11,ENE,76,0.0,0.0,91,0.00,,,-99.99,,2013-02-22 17:42:00,
2013-02-22 12:52:00,36.0,34.0,30.11,ENE,76,0.0,0.0,92,0.00,,,-99.99,,2013-02-22 17:52:00,
2013-02-22 13:01:00,37.0,35.0,30.09,ENE,76,0.0,1.0,93,0.00,,,-99.99,,2013-02-22 18:01:00,
2013-02-22 13:12:00,37.0,35.0,30.09,ENE,76,0.0,1.0,93,0.00,,,-99.99,,2013-02-22 18:12:00,
2013-02-22 13:22:00,37.0,35.0,30.09,ENE,76,0.0,1.0,93,0.00,,,-99.99,,2013-02-22 18:22:00,
2013-02-22 13:32:00,36.0,34.0,30.09,ENE,76,0.0,1.0,94,0.00,,,-99.99,,2013-02-22 18:32:00,
2013-02-22 13:42:00,36.0,34.0,30.09,ENE,76,0.0,1.0,94,0.00,,,-99.99,,2013-02-22 18:42:00,
2013-02-22 13:52:00,36.0,34.0,30.08,ENE,76,0.0,1.0,94,0.00,,,-99.99,,2013-02-22 18:52:00,
2013-02-22 14:01:00,36.0,34.0,30.08,ENE,76,0.0,1.0,94,0.01,,,-99.99,,2013-02-22 19:01:00,
2013-02-22 14:11:00,37.0,36.0,30.07,ENE,76,0.0,1.0,95,0.01,,,-99.99,,2013-02-22 19:11:00,
2013-02-22 14:21:00,37.0,36.0,30.07,ENE,76,0.0,1.0,95,0.01,,,-99.99,,2013-02-22 19:21:00,
2013-02-22 14:31:00,37.0,36.0,30.06,ENE,76,0.0,2.0,95,0.01,,,-99.99,,2013-02-22 19:31:00,
2013-02-22 14:41:00,37.0,36.0,30.06,ENE,76,0.0,2.0,95,0.01,,,-99.99,,2013-02-22 19:41:00,
2013-02-22 14:52:00,37.0,36.0,30.06,ENE,76,0.0,2.0,95,0.01,,,-99.99,,2013-02-22 19:52:00,
2013-02-22 15:01:00,38.0,37.0,30.05,ENE,76,0.0,0.0,95,0.00,,,-99.99,,2013-02-22 20:01:00,
2013-02-22 15:11:00,38.0,37.0,30.05,ENE,76,0.0,0.0,95,0.00,,,-99.99,,2013-02-22 20:11:00,
2013-02-22 15:21:00,37.0,36.0,30.04,ENE,76,0.0,1.0,95,0.00,,,-99.99,,2013-02-22 20:21:00,
2013-02-22 15:32:00,38.0,37.0,30.05,ENE,76,0.0,0.0,95,0.00,,,-99.99,,2013-02-22 20:32:00,
2013-02-22 15:42:00,38.0,37.0,30.05,ENE,76,0.0,0.0,95,0.00,,,-99.99,,2013-02-22 20:42:00,
2013-02-22 15:52:00,38.0,37.0,30.04,ENE,76,0.0,0.0,96,0.00,,,-99.99,,2013-02-22 20:52:00,
2013-02-22 16:01:00,38.0,37.0,30.04,ENE,76,0.0,0.0,96,0.00,,,-99.99,,2013-02-22 21:01:00,
2013-02-22 16:11:00,38.0,37.0,30.04,ENE,76,0.0,0.0,96,0.00,,,-99.99,,2013-02-22 21:11:00,
2013-02-22 16:21:00,38.0,37.0,30.04,ENE,76,0.0,0.0,96,0.00,,,-99.99,,2013-02-22 21:21:00,
2013-02-22 16:32:00,38.0,37.0,30.03,ENE,76,0.0,0.0,96,0.01,,,-99.99,,2013-02-22 21:32:00,
2013-02-22 16:42:00,38.0,37.0,30.03,ENE,76,0.0,0.0,96,0.01,,,-99.99,,2013-02-22 21:42:00,
2013-02-22 16:52:00,39.0,38.0,30.03,ENE,76,0.0,0.0,96,0.01,,,-99.99,,2013-02-22 21:52:00,
2013-02-22 17:01:00,38.0,37.0,30.02,ENE,76,0.0,1.0,96,0.01,,,-99.99,,2013-02-22 22:01:00,
2013-02-22 17:11:00,38.0,37.0,30.02,ENE,76,0.0,1.0,96,0.01,,,-99.99,,2013-02-22 22:11:00,
2013-02-22 17:21:00,39.0,38.0,30.01,ENE,76,0.0,0.0,96,0.01,,,-99.99,,2013-02-22 22:21:00,
2013-02-22 17:32:00,39.0,38.0,30.01,ENE,76,0.0,0.0,96,0.00,,,-99.99,,2013-02-22 22:32:00,
2013-02-22 17:42:00,39.0,38.0,30.01,ENE,76,0.0,0.0,96,0.00,,,-99.99,,2013-02-22 22:42:00,
2013-02-22 17:52:00,39.0,38.0,30.01,ENE,76,0.0,0.0,96,0.00,,,-99.99,,2013-02-22 22:52:00,
2013-02-22 18:01:00,39.0,38.0,30.01,ENE,76,0.0,0.0,96,0.00,,,-99.99,,2013-02-22 23:01:00,
2013-02-22 18:11:00,39.0,38.0,30.01,ENE,76,0.0,0.0,96,0.00,,,-99.99,,2013-02-22 23:11:00,
2013-02-22 18:21:00,39.0,38.0,30.02,ENE,76,0.0,0.0,96,0.00,,,-99.99,,2013-02-22 23:21:00,
2013-02-22 18:31:00,39.0,38.0,30.02,ENE,76,0.0,0.0,96,0.00,,,-99.99,,2013-02-22 23:31:00,
2013-02-22 18:42:00,39.0,38.0,30.02,ENE,76,0.0,0.0,96,0.00,,,-99.99,,2013-02-22 23:42:00,
2013-02-22 18:52:00,39.0,38.0,30.02,ENE,76,0.0,0.0,96,0.00,,,-99.99,,2013-02-22 23:52:00,
2013-02-22 19:02:00,39.0,38.0,30.02,ENE,76,0.0,0.0,96,0.00,,,-99.99,,2013-02-23 00:02:00,
2013-02-22 19:11:00,39.0,38.0,30.02,ENE,76,0.0,0.0,96,0.00,,,-99.99,,2013-02-23 00:11:00,
2013-02-22 19:21:00,39.0,38.0,30.02,ENE,76,0.0,0.0,96,0.00,,,-99.99,,2013-02-23 00:21:00,
2013-02-22 19:32:00,39.0,38.0,30.03,ENE,76,0.0,0.0,96,0.00,,,-99.99,,2013-02-23 00:32:00,
2013-02-22 19:42:00,39.0,38.0,30.03,ENE,76,0.0,0.0,96,0.00,,,-99.99,,2013-02-23 00:42:00,
2013-02-22 19:52:00,39.0,38.0,30.02,ENE,76,0.0,0.0,96,0.00,,,-99.99,,2013-02-23 00:52:00,
2013-02-22 20:01:00,39.0,38.0,30.02,ENE,76,0.0,0.0,96,0.01,,,-99.99,,2013-02-23 01:01:00,
2013-02-22 20:11:00,39.0,38.0,30.02,ENE,76,0.0,0.0,96,0.01,,,-99.99,,2013-02-23 01:11:00,
2013-02-22 20:21:00,39.0,38.0,30.03,ENE,76,0.0,0.0,96,0.01,,,-99.99,,2013-02-23 01:21:00,
2013-02-22 20:32:00,39.0,38.0,30.02,ENE,76,0.0,0.0,96,0.01,,,-99.99,,2013-02-23 01:32:00,
2013-02-22 20:42:00,39.0,38.0,30.02,ENE,76,0.0,0.0,96,0.01,,,-99.99,,2013-02-23 01:42:00,
2013-02-22 20:52:00,39.0,38.0,30.02,ENE,76,0.0,0.0,96,0.01,,,-99.99,,2013-02-23 01:52:00,
2013-02-22 21:01:00,39.0,38.0,30.03,ENE,76,0.0,0.0,96,0.00,,,-99.99,,2013-02-23 02:01:00,
2013-02-22 21:11:00,39.0,38.0,30.03,ENE,76,0.0,0.0,96,0.00,,,-99.99,,2013-02-23 02:11:00,
2013-02-22 21:21:00,39.0,38.0,30.03,ENE,76,0.0,0.0,96,0.00,,,-99.99,,2013-02-23 02:21:00,
2013-02-22 21:32:00,39.0,38.0,30.03,ENE,76,0.0,1.0,96,0.00,,,-99.99,,2013-02-23 02:32:00,
2013-02-22 21:42:00,39.0,38.0,30.03,ENE,76,0.0,1.0,96,0.00,,,-99.99,,2013-02-23 02:42:00,
2013-02-22 21:52:00,40.0,39.0,30.02,ENE,76,0.0,0.0,96,0.00,,,-99.99,,2013-02-23 02:52:00,
2013-02-22 22:01:00,40.0,39.0,30.01,ENE,76,0.0,1.0,96,0.00,,,-99.99,,2013-02-23 03:01:00,
2013-02-22 22:11:00,39.0,38.0,29.99,ENE,76,0.0,0.0,96,0.00,,,-99.99,,2013-02-23 03:11:00,
2013-02-22 22:21:00,39.0,38.0,29.99,ENE,76,0.0,0.0,96,0.00,,,-99.99,,2013-02-23 03:21:00,
2013-02-22 22:32:00,39.0,38.0,30.00,ENE,76,0.0,1.0,96,0.00,,,-99.99,,2013-02-23 03:32:00,
2013-02-22 22:42:00,39.0,38.0,30.00,ENE,76,0.0,1.0,96,0.00,,,-99.99,,2013-02-23 03:42:00,
2013-02-22 22:52:00,39.0,38.0,30.00,ENE,76,0.0,0.0,96,0.00,,,-99.99,,2013-02-23 03:52:00,
2013-02-22 23:01:00,39.0,38.0,29.99,ENE,76,0.0,2.0,96,0.00,,,-99.99,,2013-02-23 04:01:00,
2013-02-22 23:11:00,39.0,38.0,29.99,ENE,76,0.0,1.0,98,0.00,,,-99.99,,2013-02-23 04:11:00,
2013-02-22 23:21:00,39.0,38.0,29.99,ENE,76,0.0,1.0,98,0.00,,,-99.99,,2013-02-23 04:21:00,
2013-02-22 23:32:00,39.0,38.0,30.01,ENE,76,0.0,1.0,98,0.00,,,-99.99,,2013-02-23 04:32:00,
2013-02-22 23:41:00,39.0,38.0,30.01,ENE,76,0.0,1.0,98,0.00,,,-99.99,,2013-02-23 04:41:00,
2013-02-22 23:52:00,39.0,38.0,30.02,West,279,1.0,4.0,98,0.00,,,-99.99,,2013-02-23 04:52:00,